P/2011 U2 ( Bressi )

Japanese version
Home page
Updated on June 11, 2016

---------------------------------------------------------------------

* Profile

Discovery Date October 24, 2011
Magnitude 19.4 mag
Discoverer Terry H. Bressi (Kitt Peak)

* Pictures

* Orbital Elements

Epoch 2012 Apr. 23.0 TT = JDT 2456040.5
T 2012 May 7.85391 TT                                   MPCW
q   4.8373347            (2000.0)            P               Q
n   0.07766315     Peri.  157.76684     +0.42581939     -0.88926175
a   5.4407578      Node   266.69308     +0.80293337     +0.45647022
e   0.1109079      Incl.    9.63004     +0.41710413     +0.02912875
P  12.7
From 143 observations 2011 Oct. 24-2015 Mar. 20, mean residual 0".4.

* Magnitudes Graph

        m1 = 9.0 + 5 log d + 10.0 log r

---------------------------------------------------------------------

The orbital elements are published on M.P.E.C. 2015-G03.
The magnitudes graphs are made with Comet for Windows.

---------------------------------------------------------------------

Copyright(C) Seiichi Yoshida (comet@aerith.net). All rights reserved.